STARLINK-36784

Last updated on Mon Mar 23 2026 00:02:07 GMT+0000 (Coordinated Universal Time)

1 67877U 26034AD 26081.16668981 -.01906401 00000+0 -22194-1 0 9993 2 67877 53.1596 148.8306 0000939 81.1673 166.1499 15.64229100 5868
UTC large
Height (km)
Speed (km/s)
/
Latitude / Longitude
Inclination (degrees)
Orbital Period (minutes)
Azimuth
Elevation
Range (km)
Doppler Factor

Next 0 passes for location: London (51.5072 / 0.1276)

Sorry there are no passes over London.